Flag Weather past 2 weeks in Salalah, Oman

Now
77 °F

Clear.


Feels Like: 79 °F
Forecast: 75 / 88 °F
Wind: 2 mph from North

Location: Salalah Airport

Current Time: Nov 21, 2014 at 2:08:55 AM

Latest Report: Nov 21, 2014 at 12:50 AM


Visibility: 10 mi

Pressure: 30.01 "Hg

Humidity: 61%

Dew point: 63 °F

Location of SalalahLocation

Historic Weather in Salalah — Graph

°F

Salalah temperature yesterday

Maximum temperature yesterday: 88 °F (at 9:50 AM)
Minimum temperature yesterday: 77 °F (at 4:50 AM)
Average temperature yesterday: 82 °F

Past Weeks' High & Low Weather Summary

 TemperatureHumidityPressure
High91 °F (Nov 9, 11:50 AM)79% (Nov 15, 9:50 PM)30.07 "Hg (Nov 15, 9:50 PM)
Low70 °F (Nov 13, 12:50 AM)15% (Nov 12, 11:50 AM)29.89 "Hg (Nov 6, 2:50 PM)
Average81 °F49%29.97 "Hg
* Reported Nov 6 12:50 AM — Nov 21 12:50 AM, Salalah, Weather by CustomWeather, © 2014

Note: Actual official high and low records may vary slightly from our data, if they occured in-between our weather recording intervals... More about our weather records

Advertising

Salalah weather history for previous 24 hours

 ConditionsComfort  
Time TempWeatherWind HumidityBarometerVisibility
12:50 AM
Nov 21
77 °FClear.2 mph61%30.01 "Hg10 mi
11:50 PM
Nov 20
77 °FPassing clouds.5 mph61%30.01 "HgN/A
10:50 PM79 °FPassing clouds.2 mph58%30.04 "HgN/A
9:50 PM79 °FPassing clouds.5 mph58%30.04 "HgN/A
8:50 PM82 °FPassing clouds.1 mph55%30.01 "HgN/A
6:50 PM82 °FPassing clouds.5 mph58%29.98 "HgN/A
5:50 PM82 °FWarm.3 mph55%29.95 "HgN/A
4:50 PM84 °FPassing clouds.6 mph51%29.95 "HgN/A
3:50 PM86 °FPassing clouds.8 mph49%29.95 "HgN/A
2:50 PM86 °FPassing clouds.10 mph46%29.95 "HgN/A
1:50 PM88 °FScattered clouds.12 mph43%29.95 "HgN/A
12:50 PM86 °FWarm.12 mph55%29.98 "HgN/A
11:50 AM86 °FScattered clouds.12 mph55%29.98 "HgN/A
10:50 AM86 °FScattered clouds.10 mph29%30.01 "HgN/A
9:50 AM88 °FScattered clouds.3 mph46%30.01 "HgN/A
8:50 AM84 °FScattered clouds.8 mph48%30.01 "HgN/A
7:50 AM79 °FBroken clouds.No wind65%30.01 "HgN/A
6:50 AM77 °FScattered clouds.2 mph65%29.98 "HgN/A
5:50 AM77 °FWarm.2 mph69%29.95 "HgN/A
4:50 AM77 °FWarm.2 mph69%29.95 "HgN/A
3:50 AM79 °FPassing clouds.1 mph74%29.95 "HgN/A
Weather by CustomWeather, © 2014

See weather overviewHow to use our weather pages